Regional Weather Roundup
Issued by NWS Nashville, TN

Home | Current Version | Previous Version | Text Only | Print | Product List | Glossary On
Versions: 1 2 3 4 5 6 7 8 9 10 11 12 13 14 15 16 17 18 19 20 21 22 23 24 25 26 27 28 29 30 31 32 33 34 35 36 37 38 39 40 41 42 43 44 45 46 47 48 49 50
000
ASUS44 KOHX 261315
RWROHX
MIDDLE TENNESSEE HOURLY WEATHER ROUNDUP
NATIONAL WEATHER SERVICE NASHVILLE TN
700 AM CST MON JAN 26 2015

NOTE: "FAIR" INDICATES FEW OR NO CLOUDS BELOW 12,000 FEET WITH
NO SIGNIFICANT WEATHER AND/OR OBSTRUCTIONS TO VISIBILITY.

* THESE REPORTS ARE NOT UNDER NWS QUALITY CONTROL AND MAY NOT
  REPORT WEATHER SUCH AS PRECIPITATION AND FOG.


TNZ005>011-023>034-057-059-062>066-078-080-261400
...NORTHERN MIDDLE TENNESSEE...

CITY           SKY/WX    TMP DP  RH WIND       PRES   REMARKS
CLARKSVILLE    CLOUDY    33  29  85 NW14      29.98R WCI  23
CROSSVILLE     CLOUDY    33  30  88 W16G29    29.79R FOG     WCI  23
GALLATIN       CLOUDY    31  29  92 NW10      29.93R WCI  22
DICKSON        MOCLDY    30  28  93 N14       29.96R WCI  20
LEBANON        CLOUDY    31  28  88 NW13      29.92R WCI  21
LIVINGSTON     CLOUDY    31  30  96 NW10      29.84R VSB 1/4 WCI  22
NASHVILLE      CLOUDY    33  29  85 NW13G21   29.96R WCI  24
WEST NASHVILLE CLOUDY    30  30 100 NW14      29.97R WCI  20
PORTLAND       CLOUDY    28  25  86 NW21      29.92R WCI  15
SMYRNA         CLOUDY    33  29  86 N16G24    29.97R WCI  22
SPARTA         CLOUDY    32  32 100 NW9       29.86R WCI  24
$$
TNZ056-058-060-061-075>077-079-093>097-261400
...SOUTHERN MIDDLE TENNESSEE...

CITY           SKY/WX    TMP DP  RH WIND       PRES   REMARKS
COLUMBIA       CLOUDY    34  34 100 NW6       29.95R WCI  29
LEWISBURG      CLOUDY    34  30  85 NW13      29.94R WCI  25
MCMINNVILLE    CLOUDY    32  32 100 NW14      29.89R WCI  22
MURFREESBORO   CLOUDY    33  30  89 NW14      29.93R WCI  23
SHELBYVILLE    CLOUDY    34  32  93 NW12      29.94R WCI  25
TULLAHOMA      CLOUDY    30  30 100 NW16      29.91R WCI  19
WINCHESTER     CLOUDY    34  32  93 NW9       29.90R WCI  26
$$


...KEY TO REMARKS...
VSB - VISIBILITY IN MILES
WCI - WIND CHILL INDEX
HX  - HEAT INDEX




USA.gov is the U.S. government's official web portal to all federal, state and local government web resources and services.